Location: Newark
(30.3369°N, 81.6614°W)
Time: 19:50:24
(UTC+00:00)

N. Korean satellite - Pass Details

Date: 09 October 2020
Orbit: 452 x 505 km, 97.2° (Epoch: 28 October)

Event Time Altitude Azimuth Distance (km) Brightness Sun altitude
Rises 10:14:38 0° 27° (NNE) 2,507 10.6 -16.0°
Reaches altitude 10° 10:17:00 10° 43° (NE) 1,617 9.8 -15.5°
Maximum altitude 10:19:47 23° 96° (E) 1,037 9.2 -14.9°
Drops below altitude 10° 10:22:32 10° 150° (SSE) 1,591 9.6 -14.3°
Sets 10:24:51 0° 166° (SSE) 2,454 10.3 -13.8°
